Simultaneous Nadir Overpasses (SNOs) Predictions

Prediction of SNOs between NOAA-20 and METOP-C Satellite Orbit:

Table of predicted SNOs for the next 14.0 days since TLE Epoch: 3/4/2023
Index Date (NOAA-20) Time (NOAA-20) Lat,Lon (NOAA-20) SZA (NOAA-20 ) Date (METOP-C) Time (METOP-C) Lat,Lon (METOP-C) SZA (METOP-C ) Distance(km) Time Diff (sec)
1 03/09/2023 16:23:41 73.51, -75.73 78.23 03/09/2023 16:24:47 73.42, -72.82 77.96 92.64 66
2 03/09/2023 17:14:24 -73.45, 91.72 101.86 03/09/2023 17:15:31 -73.37, 94.38 102.10 85.00 67
3 03/09/2023 18:05:04 73.16,-100.32 77.81 03/09/2023 18:06:14 73.14, -98.77 77.69 50.06 70
4 03/09/2023 18:55:48 -73.15, 67.02 102.22 03/09/2023 18:56:58 -73.09, 68.44 102.37 46.58 70
5 03/09/2023 19:46:29 72.91,-125.16 77.51 03/09/2023 19:47:42 72.82,-124.81 77.37 15.82 73
6 03/09/2023 20:37:12 -72.85, 42.28 102.58 03/09/2023 20:38:25 -72.82, 42.52 102.64 8.73 73
7 03/09/2023 21:27:56 72.76,-150.22 77.32 03/09/2023 21:29:04 72.79,-150.19 77.33 3.24 68
8 03/09/2023 22:18:40 -72.76, 17.12 102.71 03/09/2023 22:19:48 -72.74, 17.02 102.74 3.33 68
9 03/09/2023 23:09:26 72.77,-175.60 77.29 03/09/2023 23:10:26 72.77,-175.58 77.28 0.52 60
10 03/10/2023 00:00:10 -72.76, -8.26 102.74 03/10/2023 00:01:09 -72.77, -8.26 102.74 1.39 59
11 03/10/2023 00:50:56 72.77, 159.03 77.27 03/10/2023 00:51:48 72.75, 159.03 77.23 2.56 52
12 03/10/2023 01:41:40 -72.76, -33.64 102.76 03/10/2023 01:42:31 -72.75, -33.65 102.79 1.47 51
13 03/10/2023 02:32:26 72.77, 133.65 77.24 03/10/2023 02:33:09 72.77, 133.75 77.23 3.32 43
14 03/10/2023 03:23:10 -72.76, -59.02 102.79 03/10/2023 03:23:52 -72.77, -58.93 102.79 3.30 42
15 03/10/2023 04:13:55 72.72, 108.37 77.16 03/10/2023 04:14:31 72.75, 108.36 77.18 3.04 36
16 03/10/2023 05:04:40 -72.76, -84.40 102.81 03/10/2023 05:05:14 -72.75, -84.32 102.84 3.12 34
17 03/10/2023 05:55:25 72.72, 82.99 77.13 03/10/2023 05:55:53 72.73, 82.97 77.13 0.75 28
18 03/10/2023 06:46:09 -72.72,-109.67 102.89 03/10/2023 06:46:36 -72.73,-109.71 102.89 1.62 27
19 03/10/2023 07:36:55 72.73, 57.61 77.11 03/10/2023 07:37:15 72.70, 57.58 77.08 2.91 20
20 03/10/2023 08:27:39 -72.72,-135.05 102.92 03/10/2023 08:27:58 -72.70,-135.09 102.94 2.07 19
21 03/10/2023 09:18:25 72.73, 32.23 77.08 03/10/2023 09:18:36 72.73, 32.30 77.08 2.15 11
22 03/10/2023 10:09:09 -72.72,-160.43 102.95 03/10/2023 10:09:19 -72.73,-160.38 102.94 2.19 10
23 03/10/2023 10:59:54 72.68, 6.96 77.00 03/10/2023 10:59:58 72.71, 6.91 77.03 3.25 4
24 03/10/2023 11:50:39 -72.72, 174.19 102.97 03/10/2023 11:50:41 -72.71, 174.24 102.99 2.28 2
25 03/10/2023 12:41:24 72.68, -18.42 76.98 03/10/2023 12:41:20 72.68, -18.48 76.98 1.89 4
26 03/10/2023 13:32:08 -72.67, 148.91 103.05 03/10/2023 13:32:03 -72.68, 148.85 103.04 2.44 5
27 03/10/2023 14:22:54 72.69, -43.80 76.95 03/10/2023 14:22:41 72.71, -43.76 76.98 3.02 13
28 03/10/2023 15:13:38 -72.68, 123.53 103.08 03/10/2023 15:13:25 -72.66, 123.46 103.09 3.03 13
29 03/10/2023 16:04:24 72.69, -69.18 76.93 03/10/2023 16:04:03 72.69, -69.15 76.93 1.01 21
30 03/10/2023 16:55:08 -72.68, 98.15 103.10 03/10/2023 16:54:46 -72.69, 98.18 103.09 1.23 22
31 03/10/2023 17:45:54 72.69, -94.56 76.90 03/10/2023 17:45:25 72.66, -94.54 76.88 3.11 29
32 03/10/2023 18:36:38 -72.68, 72.78 103.13 03/10/2023 18:36:08 -72.66, 72.79 103.14 1.90 30
33 03/10/2023 19:27:23 72.64,-119.83 76.82 03/10/2023 19:26:47 72.64,-119.92 76.83 3.03 36
34 03/10/2023 20:18:07 -72.63, 47.50 103.21 03/10/2023 20:17:30 -72.64, 47.40 103.19 3.44 37
35 03/10/2023 21:08:53 72.64,-145.21 76.79 03/10/2023 21:08:08 72.67,-145.21 76.83 2.52 45
36 03/10/2023 21:59:37 -72.64, 22.12 103.23 03/10/2023 21:58:51 -72.67, 22.12 103.19 3.68 46
37 03/10/2023 22:50:23 72.65,-170.59 76.77 03/10/2023 22:49:30 72.64,-170.60 76.78 0.40 53
38 03/10/2023 23:41:07 -72.64, -3.26 103.26 03/10/2023 23:40:13 -72.65, -3.27 103.24 0.91 54
39 03/11/2023 00:31:53 72.65, 164.03 76.74 03/11/2023 00:30:52 72.62, 164.02 76.73 3.29 61
40 03/11/2023 01:22:37 -72.64, -28.64 103.29 03/11/2023 01:21:35 -72.62, -28.66 103.29 2.19 62
41 03/11/2023 02:13:23 72.65, 138.65 76.72 03/11/2023 02:12:13 72.65, 138.73 76.73 2.82 70
42 03/11/2023 03:04:07 -72.64, -54.02 103.31 03/11/2023 03:02:56 -72.65, -53.94 103.29 2.53 71
43 03/11/2023 03:54:51 72.55, 113.48 76.58 03/11/2023 03:53:37 72.52, 113.14 76.59 11.81 74
44 03/11/2023 04:45:34 -72.49, -79.09 103.50 03/11/2023 04:44:20 -72.52, -79.54 103.43 15.41 74
45 03/11/2023 05:36:15 72.25, 88.71 76.22 03/11/2023 05:35:04 72.24, 87.25 76.32 49.56 71
46 03/11/2023 06:26:58 -72.19,-103.86 103.86 03/11/2023 06:25:48 -72.19,-105.53 103.74 56.57 70
47 03/11/2023 07:17:38 71.89, 64.02 75.81 03/11/2023 07:16:32 71.91, 61.27 76.00 94.76 66
48 03/11/2023 08:08:22 -71.89,-128.66 104.22 03/11/2023 08:07:16 -71.86,-131.49 104.06 98.17 66



Historial Predications of SNOs between NOAA-20 and METOP-C
